Weather History for Duluth Sky Harbor, MN

Change the Weather History Date:

Tuesday, November 5, 2013

  Actual Average Record
Temperature  
Mean Temperature 38 °F -  
Max Temperature 42 °F 42 °F 72 °F (1975)
Min Temperature 33 °F 27 °F 1 °F (1951)
Degree Days  
Heating Degree Days 28    
Moisture  
Dew Point 28 °F    
Average Humidity 71    
Maximum Humidity 87    
Minimum Humidity 49    
Precipitation  
Precipitation 0.00 in - - ()
Sea Level Pressure  
Sea Level Pressure 30.14 in    
Wind  
Wind Speed 9 mph (SW)    
Max Wind Speed 17 mph    
Max Gust Speed 21 mph    
Visibility 10 miles    
Events      
Averages and records for this station are not official NWS values.
T = Trace of Precipitation, MM = Missing Value Source: NWS Daily Summary

Daily Weather History Graph

Daily Weather History Graph

Search for Another Location

Airport:

Trip Planner

Search our weather history database for the weather conditions in past years. The results will help you decide how hot, cold, wet, or windy it might be!

Date:

Astronomy

Nov. 05, 2013 Rise Set
Actual Time 6:56 AM CST 4:46 PM CST
Civil Twilight 6:24 AM CST 5:18 PM CST
Nautical Twilight 5:48 AM CST 5:54 PM CST
Astronomical Twilight 5:13 AM CST 6:29 PM CST
Moon 9:17 AM CST (11/5) 6:42 PM CST (11/5)
Length of Visible Light 10h 53m
Length of Day
9h 49m
Waxing Crescent, 7% of the Moon is Illuminated
Nov 5
Waxing Crescent
Nov 9
First Quarter
Nov 17
Full
Nov 25
Last Quarter
Dec 2
New

Hourly Weather History & Observations

Time (CST) Temp. Windchill Dew Point Humidity Pressure Visibility Wind Dir Wind Speed Gust Speed Precip Events Conditions
12:14 AM 37.4 °F 30.8 °F 33.8 °F 87% 30.09 in 10.0 mi SW 9.2 mph - N/A   Clear
12:33 AM 35.6 °F 28.6 °F 32.0 °F 87% 30.10 in 10.0 mi SW 9.2 mph - N/A   Clear
12:53 AM 35.6 °F 28.0 °F 32.0 °F 87% 30.10 in 10.0 mi SSW 10.4 mph - N/A   Clear
1:14 AM 35.6 °F 28.0 °F 32.0 °F 87% 30.11 in 10.0 mi SSW 10.4 mph - N/A   Clear
1:33 AM 35.6 °F 29.2 °F 32.0 °F 87% 30.11 in 10.0 mi SW 8.1 mph - N/A   Clear
1:54 AM 35.6 °F 29.2 °F 32.0 °F 87% 30.12 in 10.0 mi SSW 8.1 mph - N/A   Clear
2:13 AM 35.6 °F 29.2 °F 30.2 °F 81% 30.13 in 10.0 mi SSW 8.1 mph - N/A   Clear
2:33 AM 35.6 °F 28.0 °F 30.2 °F 81% 30.13 in 10.0 mi SW 10.4 mph - N/A   Clear
2:53 AM 35.6 °F 28.0 °F 30.2 °F 81% 30.12 in 10.0 mi SW 10.4 mph - N/A   Clear
3:13 AM 35.6 °F 28.6 °F 30.2 °F 81% 30.13 in 10.0 mi SW 9.2 mph - N/A   Clear
3:33 AM 33.8 °F 26.4 °F 30.2 °F 87% 30.13 in 10.0 mi SW 9.2 mph - N/A   Clear
3:53 AM 33.8 °F 26.4 °F 30.2 °F 87% 30.13 in 10.0 mi SW 9.2 mph - N/A   Clear
4:14 AM 33.8 °F 27.0 °F 30.2 °F 87% 30.13 in 10.0 mi WSW 8.1 mph - N/A   Clear
4:33 AM 33.8 °F 27.0 °F 30.2 °F 87% 30.14 in 10.0 mi SW 8.1 mph - N/A   Clear
4:53 AM 33.8 °F 27.0 °F 30.2 °F 87% 30.14 in 10.0 mi SW 8.1 mph - N/A   Clear
5:14 AM 33.8 °F 25.8 °F 30.2 °F 87% 30.15 in 10.0 mi SW 10.4 mph - N/A   Clear
5:33 AM 33.8 °F 25.3 °F 30.2 °F 87% 30.15 in 10.0 mi SW 11.5 mph - N/A   Clear
5:53 AM 33.8 °F 25.3 °F 30.2 °F 87% 30.16 in 10.0 mi SW 11.5 mph - N/A   Clear
6:14 AM 33.8 °F 25.8 °F 30.2 °F 87% 30.16 in 10.0 mi SW 10.4 mph - N/A   Clear
6:33 AM 33.8 °F 26.4 °F 30.2 °F 87% 30.16 in 10.0 mi SW 9.2 mph - N/A   Clear
6:53 AM 33.8 °F 26.4 °F 28.4 °F 81% 30.15 in 10.0 mi SSW 9.2 mph - N/A   Clear
7:14 AM 33.8 °F 25.3 °F 28.4 °F 81% 30.15 in 10.0 mi SSW 11.5 mph - N/A   Clear
7:33 AM 33.8 °F 25.3 °F 30.2 °F 87% 30.16 in 10.0 mi SSW 11.5 mph - N/A   Clear
7:53 AM 33.8 °F 25.3 °F 28.4 °F 81% 30.17 in 10.0 mi SSW 11.5 mph - N/A   Clear
8:14 AM 33.8 °F 25.8 °F 28.4 °F 81% 30.17 in 10.0 mi SSW 10.4 mph - N/A   Clear
8:33 AM 35.6 °F 28.0 °F 28.4 °F 75% 30.18 in 10.0 mi SSW 10.4 mph - N/A   Clear
8:54 AM 35.6 °F 28.0 °F 28.4 °F 75% 30.19 in 10.0 mi SW 10.4 mph - N/A   Clear
9:13 AM 35.6 °F 28.0 °F 28.4 °F 75% 30.19 in 10.0 mi SW 10.4 mph - N/A   Clear
9:33 AM 35.6 °F 28.0 °F 26.6 °F 70% 30.19 in 10.0 mi SW 10.4 mph - N/A   Clear
9:54 AM 35.6 °F 28.0 °F 26.6 °F 70% 30.20 in 10.0 mi SW 10.4 mph - N/A   Clear
10:13 AM 37.4 °F 30.8 °F 28.4 °F 70% 30.20 in 10.0 mi SW 9.2 mph - N/A   Clear
10:34 AM 37.4 °F 30.8 °F 28.4 °F 70% 30.20 in 10.0 mi SW 9.2 mph - N/A   Clear
10:53 AM 37.4 °F 28.9 °F 26.6 °F 65% 30.21 in 10.0 mi SSW 13.8 mph - N/A   Clear
11:13 AM 37.4 °F 28.2 °F 26.6 °F 65% 30.21 in 10.0 mi SSW 16.1 mph 20.7 mph N/A   Clear
11:34 AM 39.2 °F 30.5 °F 26.6 °F 61% 30.21 in 10.0 mi SW 16.1 mph - N/A   Clear
11:53 AM 39.2 °F 30.2 °F 24.8 °F 56% 30.20 in 10.0 mi SW 17.3 mph - N/A   Clear
12:13 PM 41.0 °F 32.8 °F 26.6 °F 57% 30.21 in 10.0 mi SSW 16.1 mph - N/A   Clear
12:34 PM 41.0 °F 32.8 °F 24.8 °F 53% 30.20 in 10.0 mi SW 16.1 mph - N/A   Clear
12:53 PM 41.0 °F 33.5 °F 24.8 °F 53% 30.20 in 10.0 mi SW 13.8 mph - N/A   Clear
1:13 PM 42.8 °F 36.2 °F 24.8 °F 49% 30.19 in 10.0 mi WSW 12.7 mph - N/A   Clear
1:34 PM 42.8 °F 36.2 °F 24.8 °F 49% 30.19 in 10.0 mi SW 12.7 mph - N/A   Clear
1:53 PM 42.8 °F 36.6 °F 26.6 °F 53% 30.18 in 10.0 mi WSW 11.5 mph - N/A   Clear
2:13 PM 42.8 °F 36.6 °F 26.6 °F 53% 30.18 in 10.0 mi WSW 11.5 mph - N/A   Clear
2:33 PM 41.0 °F 35.2 °F 26.6 °F 57% 30.16 in 10.0 mi WSW 9.2 mph - N/A   Clear
2:54 PM 41.0 °F 35.2 °F 26.6 °F 57% 30.16 in 10.0 mi WSW 9.2 mph - N/A   Clear
3:13 PM 41.0 °F 35.8 °F 26.6 °F 57% 30.16 in 10.0 mi WSW 8.1 mph - N/A   Clear
3:33 PM 41.0 °F 38.0 °F 26.6 °F 57% 30.14 in 10.0 mi SW 4.6 mph - N/A   Clear
3:53 PM 39.2 °F 35.0 °F 26.6 °F 61% 30.14 in 10.0 mi WSW 5.8 mph - N/A   Clear
4:13 PM 39.2 °F 34.2 °F 28.4 °F 65% 30.13 in 10.0 mi West 6.9 mph - N/A   Clear
4:34 PM 39.2 °F 35.9 °F 28.4 °F 65% 30.13 in 10.0 mi West 4.6 mph - N/A   Scattered Clouds
4:53 PM 39.2 °F 37.0 °F 28.4 °F 65% 30.14 in 10.0 mi WSW 3.5 mph - N/A   Mostly Cloudy
5:13 PM 39.2 °F 37.0 °F 28.4 °F 65% 30.14 in 10.0 mi SW 3.5 mph - N/A   Overcast
5:34 PM 39.2 °F 37.0 °F 28.4 °F 65% 30.13 in 10.0 mi WSW 3.5 mph - N/A   Overcast
5:53 PM 39.2 °F - 28.4 °F 65% 30.12 in 10.0 mi Calm Calm - N/A   Overcast
6:13 PM 39.2 °F 37.0 °F 28.4 °F 65% 30.13 in 10.0 mi SW 3.5 mph - N/A   Overcast
6:33 PM 39.2 °F 35.9 °F 28.4 °F 65% 30.13 in 10.0 mi SW 4.6 mph - N/A   Overcast
6:53 PM 39.2 °F 35.9 °F 28.4 °F 65% 30.13 in 10.0 mi SW 4.6 mph - N/A   Overcast
7:13 PM 37.4 °F 33.8 °F 28.4 °F 70% 30.13 in 10.0 mi SW 4.6 mph - N/A   Overcast
7:33 PM 37.4 °F 32.8 °F 28.4 °F 70% 30.12 in 10.0 mi SSW 5.8 mph - N/A   Overcast
7:53 PM 37.4 °F 32.8 °F 28.4 °F 70% 30.12 in 10.0 mi SW 5.8 mph - N/A   Overcast
8:13 PM 37.4 °F 32.8 °F 28.4 °F 70% 30.11 in 10.0 mi SW 5.8 mph - N/A   Overcast
8:33 PM 37.4 °F 32.1 °F 28.4 °F 70% 30.12 in 10.0 mi West 6.9 mph - N/A   Overcast
8:54 PM 37.4 °F 34.9 °F 28.4 °F 70% 30.10 in 10.0 mi West 3.5 mph - N/A   Overcast
9:13 PM 37.4 °F 32.8 °F 26.6 °F 65% 30.09 in 10.0 mi WNW 5.8 mph - N/A   Overcast
9:33 PM 37.4 °F 32.8 °F 26.6 °F 65% 30.09 in 10.0 mi NW 5.8 mph - N/A   Overcast
9:54 PM 37.4 °F 32.8 °F 26.6 °F 65% 30.08 in 10.0 mi NW 5.8 mph - N/A   Overcast
10:13 PM 37.4 °F 30.8 °F 26.6 °F 65% 30.07 in 10.0 mi NW 9.2 mph - N/A   Overcast
10:33 PM 37.4 °F 30.3 °F 26.6 °F 65% 30.07 in 10.0 mi NW 10.4 mph - N/A   Overcast
10:54 PM 37.4 °F 31.4 °F 26.6 °F 65% 30.06 in 10.0 mi NW 8.1 mph - N/A   Overcast
11:13 PM 37.4 °F 31.4 °F 26.6 °F 65% 30.06 in 10.0 mi NW 8.1 mph - N/A   Overcast
11:33 PM 37.4 °F 30.8 °F 26.6 °F 65% 30.07 in 10.0 mi NW 9.2 mph - N/A   Overcast
11:54 PM 37.4 °F 30.8 °F 26.6 °F 65% 30.06 in 10.0 mi NW 9.2 mph - N/A   Overcast